Weather in Dashoguz

Turkmenistan     41°50′13″N   59°58′40″E
temp.,
°C
wind,
m/s
gust,
m/s
humid.,
%
clouds,
%
prec.,
mm/h
press.,
hPa
HPBL,
m
20 april, tue
tue2023:00+23wnw49286 0.0 1010219
02:00+21nw483468 0.0 1010181
05:00+18n7115299 0.0 1012455
08:00+18n8115524 0.0 1014508
11:00+21n7841100 0.0 10151160
14:00+23n8833100 0.0 10151864
17:00+22n883492 0.0 10161685
20:00+17n784670 0.0 1017843
21 april, wed
wed2123:00+13nne79555 0.0 1019583
02:00+12nne795247 0.0 1020634
05:00+10ne695044 0.0 1021530
08:00+11ene79425 0.0 1022565
11:00+15ene78244 0.0 1023960
14:00+19ene771628 0.0 10221341
17:00+19ene8812100 0.0 10221342
20:00+17ene7912100 0.0 1023730
22 april, thu
thu2223:00+15ene7121599 0.0 1024627
02:00+14e71115100 0.0 1025741
05:00+12e713165 0.0 1025504
08:00+12e812185 0.0 1027591
11:00+17ese891964 0.0 1026960
14:00+22ese891479 0.0 10251330
17:00+23e891255 0.0 10241458
20:00+21e71111100 0.0 1024517
23 april, fri
fri2323:00+19e7138100 0.0 1023558
02:00+17e6131129 0.0 1022417
05:00+14e6122257 0.0 1022292
08:00+15ese71222100 0.0 1022365
11:00+22ese8101410 0.0 1021810
14:00+27ese897100 0.0 10181360
17:00+29ese78591 0.0 10161705
20:00+25ese476100 0.0 1016103
24 april, sat
sat2423:00+22e489100 0.0 1016146
02:00+20ese51112100 0.0 1016217
05:00+19ese5101798 0.0 1015234
08:00+20se5817100 0.0 1016242
11:00+27sw441097 0.0 1016891
14:00+23nnw2123100 0.0 1016372
17:00+25w44342 0.0 10161168
20:00+24wnw46360 0.0 1016126